When you browse on this site, cookies collect data to enhance your experience and personalize the content and advertising you see.
Visit our Privacy Policy to learn more. By continuing to use the site, you agree to this use of cookies and data.
  • en France
  • Liste des pays
  • À 7 jours
  • Température de l'eau
  • Carte satellitaire
  • Carte météo
  • Widgets météo
  • user-avatar
    Se connecter

    Météo par heure à Megri

    Ce jour, 22 Février, Vendredi

    Heure Température Précipitation Vent Pression Humidité
    00:00 -3°C° 0 mm 1 m/s 619 mmHg 63%
    01:00 -5°C° 0 mm 2 m/s 619 mmHg 64%
    02:00 -6°C° 0 mm 2 m/s 619 mmHg 64%
    03:00 -6°C° 0 mm 2 m/s 619 mmHg 64%
    04:00 -6°C° 0 mm 2 m/s 619 mmHg 65%
    05:00 -6°C° 0 mm 2 m/s 619 mmHg 65%
    06:00 -7°C° 0 mm 2 m/s 619 mmHg 65%
    07:00 -5°C° 0 mm 2 m/s 619 mmHg 65%
    08:00 -4°C° 0 mm 2 m/s 619 mmHg 64%
    09:00 -3°C° 0 mm 2 m/s 620 mmHg 63%
    10:00 -2°C° 0 mm 2 m/s 620 mmHg 62%
    11:00 -1°C° 0 mm 2 m/s 620 mmHg 60%
    12:00 0°C° 0 mm 3 m/s 620 mmHg 58%
    13:00 +1°C° 0 mm 2 m/s 620 mmHg 57%
    14:00 +1°C° 0 mm 2 m/s 619 mmHg 56%
    15:00 +2°C° 0 mm 2 m/s 619 mmHg 55%
    16:00 -1°C° 0 mm 2 m/s 619 mmHg 57%
    17:00 0°C° 0 mm 1 m/s 619 mmHg 58%
    18:00 -1°C° 0 mm 1 m/s 618 mmHg 60%
    19:00 -2°C° 0 mm 1 m/s 619 mmHg 61%
    20:00 -2°C° 0 mm 1 m/s 619 mmHg 61%
    21:00 -2°C° 0 mm 1 m/s 619 mmHg 62%
    22:00 -2°C° 0 mm 1 m/s 619 mmHg 63%
    23:00 -3°C° 0 mm 1 m/s 620 mmHg 64%

    Demain, 23 Février, Samedi

    Heure Température Précipitation Vent Pression Humidité
    00:00 -3°C° 0 mm 1 m/s 620 mmHg 64%
    01:00 -3°C° 0 mm 1 m/s 620 mmHg 66%
    02:00 -3°C° 0 mm 1 m/s 620 mmHg 67%
    03:00 -3°C° 0 mm 1 m/s 620 mmHg 68%
    04:00 -2°C° 0 mm 1 m/s 620 mmHg 71%
    05:00 -2°C° 0 mm 1 m/s 620 mmHg 73%
    06:00 -2°C° 0 mm 1 m/s 621 mmHg 75%
    07:00 -1°C° 0 mm 1 m/s 621 mmHg 75%
    08:00 0°C° 0 mm 1 m/s 622 mmHg 74%
    09:00 +1°C° 0 mm 1 m/s 622 mmHg 73%
    10:00 -1°C° 0 mm 2 m/s 622 mmHg 71%
    11:00 +1°C° 0 mm 2 m/s 622 mmHg 69%
    12:00 +2°C° 0 mm 2 m/s 622 mmHg 67%
    13:00 +2°C° 0 mm 2 m/s 622 mmHg 64%
    14:00 +3°C° 0 mm 2 m/s 622 mmHg 61%
    15:00 +3°C° 0 mm 2 m/s 622 mmHg 58%
    16:00 +2°C° 0 mm 2 m/s 621 mmHg 59%
    17:00 +1°C° 0 mm 2 m/s 621 mmHg 60%
    18:00 0°C° 0 mm 1 m/s 621 mmHg 60%
    19:00 0°C° 0 mm 1 m/s 621 mmHg 61%
    20:00 -1°C° 0 mm 1 m/s 621 mmHg 61%
    21:00 -1°C° 0 mm 1 m/s 621 mmHg 61%
    22:00 -1°C° 0 mm 1 m/s 621 mmHg 60%
    23:00 -1°C° 0 mm 1 m/s 621 mmHg 60%

    Après-demain, 24 Février, Dimanche

    Heure Température Précipitation Vent Pression Humidité
    00:00 -2°C° 0 mm 1 m/s 621 mmHg 60%
    01:00 -2°C° 0 mm 1 m/s 621 mmHg 60%
    02:00 -2°C° 0 mm 1 m/s 621 mmHg 61%
    03:00 -2°C° 0 mm 1 m/s 621 mmHg 61%
    04:00 -3°C° 0 mm 1 m/s 621 mmHg 62%
    05:00 -3°C° 0 mm 1 m/s 621 mmHg 63%
    06:00 -3°C° 0 mm 1 m/s 621 mmHg 64%
    07:00 -2°C° 0 mm 1 m/s 621 mmHg 63%
    08:00 -1°C° 0 mm 1 m/s 622 mmHg 62%
    09:00 +1°C° 0 mm 1 m/s 623 mmHg 61%
    10:00 +1°C° 0 mm 2 m/s 623 mmHg 59%
    11:00 +1°C° 0 mm 2 m/s 623 mmHg 58%
    12:00 +2°C° 0 mm 2 m/s 623 mmHg 57%
    13:00 +3°C° 0 mm 2 m/s 622 mmHg 56%
    14:00 +3°C° 0 mm 2 m/s 622 mmHg 55%
    15:00 +3°C° 0 mm 2 m/s 622 mmHg 53%
    16:00 +2°C° 0 mm 2 m/s 622 mmHg 55%
    17:00 +2°C° 0 mm 1 m/s 621 mmHg 56%
    18:00 +1°C° 0 mm 1 m/s 621 mmHg 57%
    19:00 0°C° 0 mm 1 m/s 621 mmHg 58%
    20:00 -1°C° 0 mm 1 m/s 622 mmHg 59%
    21:00 -1°C° 0 mm 1 m/s 622 mmHg 60%
    22:00 -1°C° 0 mm 1 m/s 622 mmHg 59%
    23:00 -2°C° 0 mm 1 m/s 622 mmHg 59%

    25 Février, Lundi

    Heure Température Précipitation Vent Pression Humidité
    00:00 -2°C° 0 mm 1 m/s 622 mmHg 58%
    01:00 -2°C° 0 mm 1 m/s 621 mmHg 59%
    02:00 -2°C° 0 mm 1 m/s 621 mmHg 59%
    03:00 -2°C° 0 mm 1 m/s 621 mmHg 59%
    04:00 -3°C° 0 mm 1 m/s 621 mmHg 60%
    05:00 -3°C° 0 mm 1 m/s 621 mmHg 61%
    06:00 -3°C° 0 mm 1 m/s 621 mmHg 62%
    07:00 -2°C° 0 mm 1 m/s 622 mmHg 61%
    08:00 0°C° 0 mm 1 m/s 623 mmHg 59%
    09:00 +1°C° 0 mm 1 m/s 623 mmHg 57%
    10:00 +2°C° 0 mm 1 m/s 623 mmHg 56%
    11:00 +3°C° 0 mm 1 m/s 623 mmHg 55%
    12:00 +2°C° 0 mm 2 m/s 623 mmHg 54%
    13:00 +3°C° 0 mm 2 m/s 622 mmHg 53%
    14:00 +3°C° 0 mm 2 m/s 622 mmHg 53%
    15:00 +3°C° 0 mm 2 m/s 621 mmHg 52%
    16:00 +2°C° 0 mm 2 m/s 621 mmHg 53%
    17:00 +1°C° 0 mm 2 m/s 621 mmHg 54%
    18:00 +1°C° 0 mm 1 m/s 620 mmHg 55%
    19:00 0°C° 0 mm 1 m/s 620 mmHg 55%
    20:00 0°C° 0 mm 1 m/s 620 mmHg 55%
    21:00 -1°C° 0 mm 1 m/s 620 mmHg 55%
    22:00 -1°C° 0 mm 1 m/s 620 mmHg 54%
    23:00 -1°C° 0 mm 1 m/s 620 mmHg 54%

    26 Février, Mardi

    Heure Température Précipitation Vent Pression Humidité
    00:00 -1°C° 0 mm 1 m/s 620 mmHg 53%
    01:00 -1°C° 0 mm 1 m/s 620 mmHg 54%
    02:00 -2°C° 0 mm 1 m/s 619 mmHg 55%
    03:00 -2°C° 0 mm 1 m/s 619 mmHg 56%
    04:00 -2°C° 0 mm 1 m/s 619 mmHg 58%
    05:00 -4°C° 0 mm 2 m/s 619 mmHg 60%
    06:00 -4°C° 0 mm 2 m/s 619 mmHg 62%
    07:00 -3°C° 0 mm 2 m/s 619 mmHg 61%
    08:00 -1°C° 0 mm 2 m/s 619 mmHg 60%
    09:00 0°C° 0 mm 3 m/s 620 mmHg 59%
    10:00 +1°C° 0 mm 3 m/s 619 mmHg 57%
    11:00 +2°C° 0 mm 3 m/s 618 mmHg 54%
    12:00 +3°C° 0 mm 3 m/s 618 mmHg 51%
    13:00 +3°C° 0 mm 3 m/s 617 mmHg 50%
    14:00 +4°C° 0 mm 3 m/s 616 mmHg 49%
    15:00 +4°C° 0 mm 3 m/s 615 mmHg 48%
    16:00 +3°C° 0 mm 3 m/s 615 mmHg 48%
    17:00 +2°C° 0 mm 3 m/s 614 mmHg 48%
    18:00 +2°C° 0 mm 2 m/s 613 mmHg 48%
    19:00 +2°C° 0.1 mm 2 m/s 613 mmHg 52%
    20:00 +2°C° 0.1 mm 2 m/s 613 mmHg 56%
    21:00 +2°C° 0.1 mm 2 m/s 612 mmHg 59%
    22:00 +2°C° 0.3 mm 2 m/s 611 mmHg 64%
    23:00 +2°C° 0.3 mm 2 m/s 611 mmHg 69%

    27 Février, Mercredi

    Heure Température Précipitation Vent Pression Humidité
    00:00 +2°C° 0.3 mm 2 m/s 610 mmHg 74%
    01:00 +2°C° 0.6 mm 1 m/s 609 mmHg 78%
    02:00 +2°C° 0.6 mm 1 m/s 609 mmHg 82%
    03:00 +2°C° 0.6 mm 1 m/s 608 mmHg 87%
    04:00 +2°C° 0.8 mm 1 m/s 607 mmHg 88%
    05:00 +2°C° 0.8 mm 1 m/s 606 mmHg 89%
    06:00 +1°C° 0.8 mm 2 m/s 606 mmHg 90%
    07:00 +1°C° 0.5 mm 2 m/s 606 mmHg 89%
    08:00 +1°C° 0.5 mm 2 m/s 606 mmHg 88%
    09:00 +1°C° 0.5 mm 2 m/s 606 mmHg 87%
    10:00 +2°C° 0.5 mm 2 m/s 606 mmHg 85%
    11:00 +1°C° 0.5 mm 3 m/s 606 mmHg 83%
    12:00 +1°C° 0.5 mm 3 m/s 606 mmHg 81%
    13:00 +1°C° 1 mm 3 m/s 606 mmHg 82%
    14:00 0°C° 1 mm 3 m/s 606 mmHg 84%
    15:00 +1°C° 1 mm 2 m/s 606 mmHg 85%
    16:00 +1°C° 0.3 mm 2 m/s 606 mmHg 84%
    17:00 +2°C° 0.3 mm 1 m/s 606 mmHg 84%
    18:00 +1°C° 0.3 mm 1 m/s 607 mmHg 83%
    19:00 +1°C° 0.2 mm 1 m/s 607 mmHg 83%
    20:00 +1°C° 0.2 mm 1 m/s 608 mmHg 82%
    21:00 +1°C° 0.2 mm 1 m/s 608 mmHg 82%
    22:00 -1°C° 0.2 mm 2 m/s 608 mmHg 83%
    23:00 -1°C° 0.2 mm 2 m/s 608 mmHg 84%
    Voir plus